SCP
0 0 0 0 0 -0 -0 0 0 0 0 0 0 0 0 -0 -0 -0 -0 -0 -0 0 0 0 0 0 0 0 0 0 0 0
0 0 0 0 0 0 -0 0 0 -0 -0 -0 -0 0 0 -0 -0 -0 -0 -0 -0 0 0 0 0 0 0 0 0 0 0 0
0 1 0 0 0 0 0 0 -0 -0 -0 -0 -0 -0 0 -0 -0 -0 -0 -0 -0 0 0 0 0 0 0 0 0 0 0 0
0 2 1 0 0 1 0 0 0 -0 -0 -0 -0 -0 -0 0 0 -0 -0 -0 -0 0 0 0 0 0 0 0 0 0 0 0
0 2 1 0 0 0 0 0 0 0 0 -0 -0 -0 -0 -0 0 0 0 0 0 -0 0 0 0 0 0 0 0 0 0 0
0 2 1 0 0 0 0 0 0 0 0 0 -0 -0 -0 -0 -0 0 0 0 -0 -0 -0 0 0 0 0 0 0 0 0 0
0 0 1 0 0 0 0 0 0 0 0 0 0 0 0 -0 -0 0 0 0 -0 -0 0 0 0 0 0 0 0 0 0 0
0 0 1 1 0 0 0 1 0 0 0 0 0 0 0 0 -0 0 0 0 0 0 0 0 0 0 0 0 0 0 0 0
0 1 1 2 1 0 1 1 0 0 0 0 0 0 0 0 0 0 0 0 0 0 0 0 0 0 0 0 0 0 0 0
0 0 1 2 5 6 7 9 5 -0 0 0 0 0 1 1 0 1 0 1 1 0 0 0 0 0 0 0 0 0 0 0
0 0 1 1 2 4 3 7 8 8 2 1 1 1 1 1 2 1 2 1 0 0 0 0 0 1 1 0 0 0 0 0
0 0 0 1 1 2 2 5 5 8 3 4 2 2 1 2 2 2 2 1 0 0 0 0 0 1 1 0 0 0 1 1
0 1 0 0 0 -0 3 4 3 3 2 3 2 2 3 2 2 2 2 1 1 1 0 0 0 0 0 0 0 1 1 1
0 0 0 0 4 1 1 1 3 5 2 2 2 2 2 2 2 2 2 1 2 1 0 0 0 0 1 1 1 1 2 3
0 0 1 2 3 4 5 2 0 1 2 1 1 2 2 2 2 3 1 2 1 1 0 0 0 0 0 1 1 1 3 4
0 0 2 2 1 3 1 0 1 2 3 0 1 2 2 1 1 2 2 1 2 1 1 0 0 0 1 1 2 1 2 2
0 0 0 1 1 1 0 1 2 0 1 1 2 1 0 1 2 3 2 2 2 1 1 1 0 0 1 2 3 2 2 2
0 0 0 0 0 0 1 0 0 0 0 0 0 0 2 1 1 1 2 2 1 0 0 1 1 1 1 1 2 2 3 2
0 0 0 0 0 0 1 0 0 0 0 0 0 0 0 2 2 1 1 2 1 0 0 0 1 1 2 1 2 2 2 3
Wind_Speed_500mb
23 22 47 51 55 57 59 57 52 48 41 37 32 29 26 23 20 16 13 10 7 4 3 3 1 1 1 2 3 4 5 5
30 32 42 53 56 57 59 58 54 49 44 39 35 32 29 24 20 16 12 9 7 6 7 6 6 6 7 7 6 5 5 2
27 39 29 53 58 58 55 56 53 48 44 40 36 34 30 26 21 16 13 10 9 9 11 11 11 12 14 14 13 11 10 9
24 40 33 47 60 60 57 55 54 50 45 41 38 35 32 28 23 19 16 14 13 13 14 15 17 18 20 21 21 19 17 17
20 41 37 37 60 63 59 55 52 50 47 43 40 37 35 32 27 24 21 18 18 18 19 19 20 24 26 29 27 25 24 24
14 40 32 37 58 63 61 59 55 51 48 45 42 40 38 34 30 28 25 23 23 23 25 25 25 27 30 34 34 31 30 32
12 30 30 26 47 54 45 57 58 56 53 49 45 43 40 36 31 26 25 25 25 29 32 33 31 31 34 37 38 25 29 36
16 14 34 28 31 37 38 42 46 56 55 52 49 47 43 39 32 22 25 29 26 26 33 35 34 28 26 30 26 22 34 34
7 13 11 30 33 31 33 41 36 43 52 54 53 50 46 40 35 25 25 24 24 31 23 22 26 23 33 32 25 14 30 33
9 6 26 25 36 38 54 38 40 35 38 39 43 46 49 47 38 36 35 34 26 28 30 28 24 21 30 37 33 29 29 33
4 11 14 23 27 47 52 45 38 36 35 32 31 38 39 41 42 32 42 37 31 35 27 27 31 36 32 30 31 31 37 37
31 21 17 16 19 18 50 65 45 46 45 39 42 34 43 42 38 43 46 40 29 28 33 41 39 43 44 33 28 28 28 36
44 44 38 30 27 10 7 46 69 54 53 46 33 42 48 53 50 44 50 44 39 34 34 35 35 30 38 32 33 27 28 33
46 47 43 39 34 26 34 9 27 43 47 54 54 51 39 52 58 54 56 52 45 44 39 39 40 36 31 30 33 29 29 34
31 43 44 54 51 41 35 34 5 4 13 33 49 53 49 46 52 57 52 53 47 53 43 41 46 46 36 39 35 27 35 39
38 37 24 33 58 69 70 46 49 17 17 12 13 16 50 57 56 62 54 46 55 59 50 47 55 50 35 44 42 43 38 37
38 41 43 39 36 54 53 40 67 69 58 29 13 12 19 26 38 49 57 47 58 60 61 56 61 64 58 47 49 32 28 31
29 34 39 51 48 39 47 47 50 64 65 62 74 74 54 44 44 43 44 26 29 42 52 56 61 65 65 49 52 40 13 20
21 21 29 40 53 45 35 32 59 73 71 71 71 68 61 47 51 50 45 40 30 36 40 54 66 73 58 59 60 52 47 41
Wind_Direction_500mb
227 251 182 169 165 168 166 167 170 172 171 169 167 167 167 164 160 159 155 154 159 176 200 218 198 229 254 312 339 14 15 82
211 228 187 175 170 173 173 173 175 179 179 177 177 178 178 177 176 178 178 185 201 231 251 262 283 290 294 292 297 313 310 287
204 207 208 182 175 174 182 182 182 186 188 188 187 188 187 187 189 198 205 217 234 258 274 283 294 299 297 295 293 293 282 269
194 202 211 199 184 179 184 189 190 192 196 198 197 198 196 197 200 210 222 236 253 267 277 286 292 295 293 289 288 288 287 280
191 201 207 210 196 184 187 194 200 200 202 205 206 207 207 206 210 218 231 242 256 269 274 279 283 287 289 289 288 288 288 287
204 196 205 226 208 193 192 198 201 210 210 211 211 212 214 216 220 231 240 250 258 268 273 277 275 281 285 287 290 297 302 309
282 178 201 237 207 200 194 206 207 210 215 217 217 218 219 222 231 245 254 253 263 268 271 275 276 278 283 287 290 295 318 324
302 245 209 209 214 211 184 225 217 218 218 220 223 224 224 229 230 233 260 271 285 298 276 277 278 289 301 301 290 292 305 305
343 272 162 190 197 215 190 225 244 235 224 225 225 229 231 230 229 220 248 279 288 309 318 314 315 317 313 316 310 268 252 265
252 333 213 186 178 193 202 196 202 241 226 234 235 233 235 235 234 225 217 227 244 285 304 304 312 299 286 298 300 301 287 276
148 243 215 245 251 241 226 218 200 188 210 221 235 246 246 244 234 233 236 243 228 215 238 269 276 277 277 280 279 284 290 292
229 242 213 226 244 229 223 219 226 205 199 199 217 225 246 248 244 226 238 253 249 240 227 239 251 259 263 269 292 301 292 293
220 226 218 205 246 244 192 218 229 220 220 207 199 229 238 251 250 242 244 245 253 251 250 260 260 262 263 275 302 303 284 294
216 206 214 202 202 219 242 206 219 224 237 235 225 224 229 242 257 252 247 248 244 252 254 261 262 255 257 264 274 279 278 280
205 211 212 210 202 204 187 216 254 350 320 224 237 237 225 241 250 255 251 245 246 246 250 259 257 255 256 255 267 262 268 274
201 202 209 204 214 213 227 251 247 246 276 237 283 266 234 237 244 254 258 250 239 243 251 252 257 266 249 250 257 270 276 274
222 221 218 223 218 223 227 244 243 251 255 245 265 310 269 251 262 261 255 257 261 250 248 252 253 256 274 252 248 264 277 279
222 227 226 226 230 224 227 230 257 246 248 254 256 257 254 268 280 262 254 272 265 259 252 255 255 256 251 268 256 246 250 246
202 266 247 233 232 237 241 248 223 244 256 254 262 262 269 267 261 264 268 277 275 292 292 264 255 257 255 247 257 259 256 252
Wind_Speed_850mb
23 22 47 51 55 57 59 57 52 48 41 37 32 29 26 23 20 16 13 10 7 4 3 3 1 1 1 2 3 4 5 5
30 32 42 53 56 57 59 58 54 49 44 39 35 32 29 24 20 16 12 9 7 6 7 6 6 6 7 7 6 5 5 2
27 39 29 53 58 58 55 56 53 48 44 40 36 34 30 26 21 16 13 10 9 9 11 11 11 12 14 14 13 11 10 9
24 40 33 47 60 60 57 55 54 50 45 41 38 35 32 28 23 19 16 14 13 13 14 15 17 18 20 21 21 19 17 17
20 41 37 37 60 63 59 55 52 50 47 43 40 37 35 32 27 24 21 18 18 18 19 19 20 24 26 29 27 25 24 24
14 40 32 37 58 63 61 59 55 51 48 45 42 40 38 34 30 28 25 23 23 23 25 25 25 27 30 34 34 31 30 32
12 30 30 26 47 54 45 57 58 56 53 49 45 43 40 36 31 26 25 25 25 29 32 33 31 31 34 37 38 25 29 36
16 14 34 28 31 37 38 42 46 56 55 52 49 47 43 39 32 22 25 29 26 26 33 35 34 28 26 30 26 22 34 34
7 13 11 30 33 31 33 41 36 43 52 54 53 50 46 40 35 25 25 24 24 31 23 22 26 23 33 32 25 14 30 33
9 6 26 25 36 38 54 38 40 35 38 39 43 46 49 47 38 36 35 34 26 28 30 28 24 21 30 37 33 29 29 33
4 11 14 23 27 47 52 45 38 36 35 32 31 38 39 41 42 32 42 37 31 35 27 27 31 36 32 30 31 31 37 37
31 21 17 16 19 18 50 65 45 46 45 39 42 34 43 42 38 43 46 40 29 28 33 41 39 43 44 33 28 28 28 36
44 44 38 30 27 10 7 46 69 54 53 46 33 42 48 53 50 44 50 44 39 34 34 35 35 30 38 32 33 27 28 33
46 47 43 39 34 26 34 9 27 43 47 54 54 51 39 52 58 54 56 52 45 44 39 39 40 36 31 30 33 29 29 34
31 43 44 54 51 41 35 34 5 4 13 33 49 53 49 46 52 57 52 53 47 53 43 41 46 46 36 39 35 27 35 39
38 37 24 33 58 69 70 46 49 17 17 12 13 16 50 57 56 62 54 46 55 59 50 47 55 50 35 44 42 43 38 37
38 41 43 39 36 54 53 40 67 69 58 29 13 12 19 26 38 49 57 47 58 60 61 56 61 64 58 47 49 32 28 31
29 34 39 51 48 39 47 47 50 64 65 62 74 74 54 44 44 43 44 26 29 42 52 56 61 65 65 49 52 40 13 20
21 21 29 40 53 45 35 32 59 73 71 71 71 68 61 47 51 50 45 40 30 36 40 54 66 73 58 59 60 52 47 41
Wind_Direction_850mb
227 251 182 169 165 168 166 167 170 172 171 169 167 167 167 164 160 159 155 154 159 176 200 218 198 229 254 312 339 14 15 82
211 228 187 175 170 173 173 173 175 179 179 177 177 178 178 177 176 178 178 185 201 231 251 262 283 290 294 292 297 313 310 287
204 207 208 182 175 174 182 182 182 186 188 188 187 188 187 187 189 198 205 217 234 258 274 283 294 299 297 295 293 293 282 269
194 202 211 199 184 179 184 189 190 192 196 198 197 198 196 197 200 210 222 236 253 267 277 286 292 295 293 289 288 288 287 280
191 201 207 210 196 184 187 194 200 200 202 205 206 207 207 206 210 218 231 242 256 269 274 279 283 287 289 289 288 288 288 287
204 196 205 226 208 193 192 198 201 210 210 211 211 212 214 216 220 231 240 250 258 268 273 277 275 281 285 287 290 297 302 309
282 178 201 237 207 200 194 206 207 210 215 217 217 218 219 222 231 245 254 253 263 268 271 275 276 278 283 287 290 295 318 324
302 245 209 209 214 211 184 225 217 218 218 220 223 224 224 229 230 233 260 271 285 298 276 277 278 289 301 301 290 292 305 305
343 272 162 190 197 215 190 225 244 235 224 225 225 229 231 230 229 220 248 279 288 309 318 314 315 317 313 316 310 268 252 265
252 333 213 186 178 193 202 196 202 241 226 234 235 233 235 235 234 225 217 227 244 285 304 304 312 299 286 298 300 301 287 276
148 243 215 245 251 241 226 218 200 188 210 221 235 246 246 244 234 233 236 243 228 215 238 269 276 277 277 280 279 284 290 292
229 242 213 226 244 229 223 219 226 205 199 199 217 225 246 248 244 226 238 253 249 240 227 239 251 259 263 269 292 301 292 293
220 226 218 205 246 244 192 218 229 220 220 207 199 229 238 251 250 242 244 245 253 251 250 260 260 262 263 275 302 303 284 294
216 206 214 202 202 219 242 206 219 224 237 235 225 224 229 242 257 252 247 248 244 252 254 261 262 255 257 264 274 279 278 280
205 211 212 210 202 204 187 216 254 350 320 224 237 237 225 241 250 255 251 245 246 246 250 259 257 255 256 255 267 262 268 274
201 202 209 204 214 213 227 251 247 246 276 237 283 266 234 237 244 254 258 250 239 243 251 252 257 266 249 250 257 270 276 274
222 221 218 223 218 223 227 244 243 251 255 245 265 310 269 251 262 261 255 257 261 250 248 252 253 256 274 252 248 264 277 279
222 227 226 226 230 224 227 230 257 246 248 254 256 257 254 268 280 262 254 272 265 259 252 255 255 256 251 268 256 246 250 246
202 266 247 233 232 237 241 248 223 244 256 254 262 262 269 267 261 264 268 277 275 292 292 264 255 257 255 247 257 259 256 252